Weather in Malaya Kandala

Russia / Ulyanovsk Oblast     54°29′15″N   49°23′31″E
temp.,
°C
wind,
m/s
gust,
m/s
humid.,
%
clouds,
%
prec.,
mm/h
press.,
hPa
HPBL,
m
31 july, sat
sat3101:00+20ssw3675100 0.1 1006113
04:00+19ssw398869 0.3 1005211
07:00+20sw368399 0.1 1005262
10:00+25sw566395 0.1 1005809
13:00+26wsw796488 0.8 10051477
16:00+26w8105559 1.4 10061436
19:00+25w5960100 0.0 1007961
22:00+22wsw411716 0.0 1008312
1 august, sun
sun101:00+19wsw47760 0.0 1010117
04:00+18wsw37755 0.0 1010108
07:00+21wsw3865100 0.0 1012247
10:00+25wsw57526 0.0 1012683
13:00+28wnw693999 0.0 10122014
16:00+29wnw683523 0.0 10122207
19:00+27wnw354311 0.0 1013189
22:00+20nw115836 0.0 101411
2 august, mon
mon201:00+19sw116071 0.0 101411
04:00+18sw226422 0.0 101411
07:00+22ssw225854 0.0 101585
10:00+28sw344237 0.0 1015866
13:00+32sw34285 0.0 10141968
16:00+33wnw34220 0.0 10122641
19:00+29n33370 0.0 101271
22:00+23e22425 0.0 101215
3 august, tue
tue301:00+21sse335519 0.2 101124
04:00+21sse465211 0.2 101182
07:00+24s385387 0.0 1011180
10:00+31s57315 0.0 1009622
13:00+36ssw69215 0.0 10092310
16:00+37wsw711165 0.0 10074004
19:00+28wnw494158 0.0 1008374
22:00+21e337198 0.1 101035
4 august, wed
wed401:00+20nnw368095 0.3 101093
04:00+20e2269100 0.4 100813
07:00+21sw3671100 0.3 1010164
10:00+23wnw5666100 0.3 1010490
13:00+26wnw5551100 0.0 10111037
16:00+27wnw66456 0.0 10121490
19:00+24nw565120 0.0 10131295
22:00+19nnw2267100 0.0 101322